Theta_e
297 297 297 297 297 296 296 296 297 296 296 295 294 294 294 293 293 293 292 292 291 290 290 289 288 288 287 286 286 287 287 287 287 288 289 289 288 288 288 287 287 287 287 286 286 286 285 285 285 285 285 285 284 284 284 284 284 284 284 283 283 283 282 282 282 282 282 282 282
297 297 297 299 298 297 296 296 296 296 296 295 294 294 294 293 293 292 292 291 291 290 290 289 288 287 287 286 287 287 286 287 287 287 288 288 288 288 287 287 287 287 287 286 286 286 285 285 285 285 284 284 284 284 284 284 284 284 283 283 283 283 282 282 282 282 282 282 282
297 297 297 297 297 296 295 295 295 295 294 295 294 294 294 293 293 292 292 291 290 290 289 289 288 287 287 286 286 287 286 286 286 287 287 288 287 287 287 287 287 287 287 286 286 286 285 285 285 285 285 284 284 283 283 284 284 283 283 283 283 283 282 282 282 282 282 282 282
297 297 297 296 296 296 295 295 295 294 294 294 294 293 293 293 293 292 291 290 289 289 289 288 288 287 287 286 286 286 286 287 287 287 287 287 287 287 287 287 287 286 286 286 286 285 285 285 285 285 285 284 283 283 283 283 283 283 283 283 283 282 282 282 282 282 282 282 282
296 297 297 297 296 296 296 295 295 294 294 293 293 293 293 293 292 291 291 290 290 290 289 288 288 288 287 287 286 285 286 286 288 287 287 286 287 287 287 287 286 286 286 285 285 285 285 285 285 284 284 284 283 283 283 283 283 283 283 283 283 283 282 282 282 282 282 282 282
296 296 296 296 296 296 296 296 295 294 293 293 293 292 292 292 292 291 291 291 290 289 288 289 289 289 288 286 286 285 285 285 287 286 286 286 286 286 286 286 286 286 286 285 285 284 284 284 284 284 284 284 283 283 283 283 283 283 282 282 282 282 282 282 282 282 282 282 282
296 296 296 296 295 295 295 295 294 294 293 292 292 292 292 291 291 290 290 290 289 289 289 290 290 289 288 286 286 286 285 285 285 285 285 285 285 285 285 286 285 285 285 285 284 284 284 284 284 284 284 284 283 283 283 283 283 282 282 282 282 282 282 282 282 282 282 281 281
295 295 295 295 295 294 294 294 294 293 293 293 292 292 291 291 290 290 290 289 289 289 289 290 288 287 287 287 286 286 285 285 285 285 285 285 284 284 284 284 284 285 285 284 284 284 284 284 284 283 283 283 283 283 282 282 282 282 282 281 282 282 282 282 282 282 282 281 281
294 294 294 294 294 293 293 293 293 293 293 293 292 291 291 290 290 289 289 289 290 290 289 289 288 287 287 286 286 286 285 285 284 284 284 284 284 284 284 284 284 284 284 284 284 284 283 284 284 283 283 283 283 282 282 282 282 281 281 281 281 281 282 282 282 281 281 281 281
294 294 294 293 293 293 293 293 293 292 292 292 292 291 291 293 292 290 290 290 290 289 289 288 287 287 287 286 286 286 285 285 284 284 284 284 284 283 283 283 283 283 284 284 284 283 283 283 283 283 283 283 282 282 281 281 281 281 281 281 281 281 281 281 281 281 281 281 281
294 294 294 293 293 293 293 293 293 293 293 292 292 291 291 293 292 291 290 290 289 289 288 288 287 287 287 286 286 286 285 285 285 284 284 283 284 283 283 283 283 283 283 284 284 284 283 283 283 282 282 282 282 281 281 280 281 281 281 281 281 281 280 281 281 281 281 281 281
294 294 294 293 293 292 292 292 292 292 292 292 292 291 291 291 290 290 290 289 289 288 288 288 287 287 287 287 286 286 286 285 284 284 283 283 283 283 283 283 283 283 283 283 283 283 283 283 282 282 282 281 282 281 281 281 281 281 281 281 281 280 280 280 280 281 281 281 280
294 294 293 293 292 292 292 291 292 291 291 291 291 291 291 291 291 290 290 289 289 289 289 288 288 287 287 287 286 286 286 285 284 284 284 283 283 283 283 283 283 283 283 283 283 283 283 282 282 282 281 281 282 282 281 281 281 281 280 280 280 280 280 280 280 280 280 280 280
294 293 293 292 292 291 291 291 291 291 291 291 291 291 291 290 291 291 290 289 289 289 289 288 289 288 288 287 286 286 286 285 285 284 284 283 283 283 283 283 283 283 283 283 283 283 282 282 282 282 281 281 281 281 281 281 281 281 280 280 280 280 280 280 280 280 280 280 280
294 293 293 292 292 291 291 290 291 291 291 291 291 291 291 291 291 291 290 289 289 289 289 289 289 289 288 287 286 286 286 285 285 284 284 284 283 283 283 283 283 283 283 283 283 283 282 282 282 282 282 281 281 281 281 281 281 281 280 280 280 280 280 280 280 280 280 280 280
294 293 292 292 291 291 291 291 291 291 291 291 291 290 290 290 290 290 290 290 289 289 289 289 288 288 288 288 287 286 285 285 285 284 284 284 283 283 283 283 283 282 282 282 282 282 282 282 282 282 282 282 281 281 281 281 281 280 280 280 280 280 280 280 280 280 280 280 280
294 293 292 292 291 291 291 291 291 291 291 291 290 290 290 290 290 290 290 290 290 289 289 288 288 288 288 288 287 287 286 285 285 284 284 284 283 283 283 282 282 282 282 282 282 282 282 282 282 282 282 282 282 281 281 281 280 280 280 280 280 280 280 281 281 280 280 280 280
294 293 293 292 291 291 290 290 291 291 291 290 290 290 290 290 289 290 290 290 290 289 288 288 288 288 287 287 287 287 286 285 284 284 284 284 283 283 283 283 283 282 282 282 282 282 282 282 282 282 282 282 282 282 281 281 281 280 280 280 280 280 281 281 281 281 281 280 281
295 294 293 292 291 291 291 291 291 291 291 290 290 290 290 290 290 289 289 289 289 289 288 287 287 287 287 287 287 287 287 285 284 284 284 284 283 283 283 283 283 282 282 282 282 282 282 283 282 282 282 282 282 282 281 281 281 280 280 280 280 280 280 281 281 281 281 281 281
295 294 294 293 292 292 292 291 291 291 291 291 291 291 291 290 290 289 289 289 289 289 288 288 287 287 287 287 286 286 286 286 284 283 283 283 283 283 283 283 283 282 282 282 282 282 282 282 282 282 282 282 282 281 281 281 281 280 280 280 280 280 280 280 281 281 281 281 281
294 294 294 294 293 293 293 292 292 292 291 291 291 291 290 290 289 289 289 289 289 289 288 288 287 287 286 286 285 285 285 286 285 283 283 283 283 283 283 283 283 283 282 282 282 282 282 282 282 282 282 282 281 281 281 281 280 280 280 280 280 280 280 280 281 281 281 281 281
294 294 294 294 294 294 294 294 293 293 292 292 291 291 290 290 289 289 289 289 289 289 288 288 287 286 286 285 285 285 285 285 284 284 283 283 283 283 283 283 283 282 282 282 282 282 282 282 282 282 282 281 281 281 281 281 280 280 280 280 280 280 280 280 280 281 281 281 281
293 293 293 293 293 294 294 294 294 293 293 292 292 291 291 290 290 289 289 288 289 288 288 287 287 286 285 285 285 284 284 284 284 284 283 283 283 283 283 283 283 282 282 282 282 282 281 281 281 281 281 281 281 281 281 281 280 280 280 280 280 280 280 280 280 280 281 281 281
292 293 293 293 292 292 293 293 293 293 292 292 292 291 291 290 290 289 288 288 288 287 287 287 286 286 285 285 284 284 283 283 283 283 283 283 283 283 283 283 282 282 282 282 282 283 282 282 281 281 281 281 281 281 281 280 280 280 280 279 279 280 280 280 280 280 281 281 281
291 291 291 291 291 291 291 291 292 292 292 292 292 291 291 290 290 289 288 287 287 286 286 286 285 285 285 284 284 284 283 283 283 283 283 283 283 283 283 282 282 282 282 283 285 286 286 285 283 281 281 281 281 281 281 280 280 280 280 280 279 279 279 279 280 280 280 280 281
291 290 290 290 290 290 290 290 290 291 291 291 291 291 290 290 289 288 287 287 286 286 286 285 285 285 285 285 284 284 284 283 283 283 283 283 283 283 282 282 282 282 283 284 287 289 289 289 287 285 282 281 281 280 280 280 280 280 280 280 280 279 279 279 279 280 280 280 281
290 289 289 289 289 289 289 290 290 290 290 290 290 290 290 290 289 288 287 287 286 286 285 285 285 286 287 286 285 284 284 284 284 283 283 283 282 282 282 282 282 282 283 285 288 289 290 290 290 288 285 282 281 280 280 280 280 280 280 280 279 279 279 279 279 279 280 280 280
289 289 289 289 289 289 290 290 290 290 290 290 290 290 290 290 289 288 288 287 286 285 285 285 286 286 286 286 285 284 284 284 284 283 283 283 283 282 282 282 282 283 284 287 288 289 290 291 291 290 288 285 282 280 280 280 280 280 279 279 279 279 279 279 279 279 279 280 280
289 289 289 289 289 289 290 290 290 290 290 290 290 290 289 289 289 288 288 287 286 285 285 285 286 286 286 285 285 285 284 284 284 283 283 283 283 283 282 282 282 283 285 288 289 289 290 291 291 291 290 288 284 281 280 280 280 280 279 279 279 279 279 279 279 279 279 279 280
288 288 288 289 289 290 290 290 290 291 290 290 290 289 289 289 288 288 287 287 286 286 286 286 285 285 285 284 285 285 284 284 284 284 283 283 282 282 282 283 282 283 285 288 289 290 290 290 291 291 291 291 286 283 280 280 280 280 280 279 279 279 279 279 279 279 279 279 279
288 288 289 289 289 290 290 291 291 291 291 291 290 289 289 289 288 288 287 287 287 287 287 286 285 284 284 284 284 284 284 284 284 284 283 282 283 282 282 282 282 283 285 288 289 290 290 290 291 291 291 291 289 285 282 280 280 279 279 279 279 279 279 279 279 279 279 279 279
288 289 289 289 290 290 291 291 291 291 291 290 290 289 289 289 288 288 288 287 287 287 287 286 285 285 284 284 284 284 284 283 283 283 283 282 282 282 282 282 282 283 285 288 289 290 290 291 291 291 291 291 290 287 283 281 280 280 279 279 279 279 279 279 279 279 279 279 279
289 289 289 290 290 290 291 291 291 291 291 290 290 290 289 289 289 288 287 287 287 286 286 286 285 285 285 284 284 283 283 283 283 283 283 283 282 282 281 282 282 283 286 288 289 290 290 290 291 291 291 291 290 288 285 283 281 280 280 279 279 279 279 279 279 279 279 279 280
288 289 289 290 290 291 291 291 291 291 291 290 290 290 289 289 288 288 288 288 287 287 286 286 286 285 285 285 284 283 283 284 283 283 282 282 282 281 281 281 281 284 287 288 289 289 290 290 291 291 291 291 289 288 286 284 282 281 280 279 279 279 279 279 279 279 280 280 280
288 289 289 290 291 291 291 291 291 291 291 291 290 290 289 289 288 288 288 289 289 288 287 286 286 286 285 285 284 284 284 284 283 283 282 282 281 281 281 281 281 284 287 288 289 289 290 290 290 291 291 290 288 287 286 285 283 282 280 279 279 279 279 279 279 279 280 280 280
289 290 290 291 291 292 292 292 291 291 291 291 290 290 290 289 289 289 289 289 289 287 286 286 285 285 285 284 284 284 284 283 283 282 282 282 281 281 281 281 281 283 286 288 288 289 289 290 290 290 290 289 287 287 286 286 284 283 281 280 280 279 279 279 279 279 280 280 280
290 291 291 292 292 292 292 292 291 291 291 291 291 290 290 290 289 289 289 289 288 287 286 285 285 285 285 284 284 284 284 283 283 282 282 283 282 281 281 280 280 282 285 287 288 289 289 290 290 290 290 288 287 286 286 286 285 284 282 281 280 280 279 279 280 280 280 280 281
291 292 292 292 292 291 292 291 291 291 291 291 291 291 291 290 290 289 289 289 288 286 286 285 285 285 285 285 284 284 283 283 283 282 282 282 282 281 281 280 280 281 283 286 288 288 289 290 290 290 289 287 286 286 285 285 285 284 283 282 281 280 280 280 280 280 280 280 282
292 292 292 291 291 291 291 291 291 291 291 291 291 291 291 291 290 290 290 290 288 287 286 286 285 285 285 285 285 284 283 283 283 283 283 282 282 282 282 281 280 281 283 286 287 288 289 289 290 290 290 288 286 285 285 285 285 284 284 283 282 281 280 280 280 280 280 281 284
293 292 292 292 291 291 291 291 291 292 292 292 292 291 292 291 291 291 291 290 288 287 287 286 286 285 286 286 285 284 283 282 282 282 282 282 282 284 284 282 281 281 282 285 287 288 288 289 289 290 290 288 286 286 285 285 284 284 284 284 283 281 281 280 280 280 280 281 283
293 292 292 292 292 291 292 292 292 292 292 292 292 292 292 293 292 291 290 290 289 288 287 287 286 285 285 286 285 284 283 282 282 282 282 283 283 284 284 283 281 281 281 284 286 287 288 289 289 290 289 288 287 286 285 285 284 284 283 284 283 282 281 281 280 281 281 281 282
Wind_Speed
9 9 9 9 8 8 7 7 8 8 8 7 8 8 7 7 8 7 7 6 6 6 6 6 6 6 7 9 11 12 13 13 14 15 16 17 16 15 15 14 13 13 13 13 13 12 12 13 11 10 8 8 9 9 9 9 11 12 12 12 11 12 12 13 13 14 14 13 10
10 10 10 10 10 8 7 7 8 8 8 7 7 7 7 7 7 7 7 7 6 6 6 6 6 7 8 10 12 12 13 13 14 15 16 17 16 16 15 14 14 13 13 14 13 12 11 12 11 10 8 8 8 9 10 9 10 11 12 14 12 11 11 12 13 13 14 13 11
10 10 10 10 9 9 8 7 8 8 9 8 7 7 7 7 7 7 7 6 6 6 5 5 6 7 9 10 11 12 12 13 14 15 15 15 16 16 15 14 14 14 14 14 13 12 12 12 11 10 9 8 9 10 10 9 10 11 12 14 11 9 9 10 11 12 11 11 11
10 10 10 10 11 11 10 9 9 9 9 7 7 7 7 6 6 6 6 6 6 6 5 5 5 7 8 9 11 11 12 13 14 15 15 15 15 16 16 15 15 14 14 14 14 14 13 13 11 10 10 10 10 10 9 9 10 10 10 11 9 9 9 9 10 10 10 10 11
10 10 10 10 11 11 11 9 9 9 7 6 6 6 6 6 6 6 5 5 6 6 6 6 6 6 7 9 11 12 13 14 15 15 15 15 15 15 15 15 15 15 14 13 14 14 14 14 11 9 9 10 9 9 9 9 10 10 9 8 8 8 9 9 9 9 9 9 9
9 9 10 9 10 10 10 9 9 9 7 6 7 7 7 6 5 6 6 7 6 6 7 7 7 7 8 9 10 11 12 13 14 14 14 15 14 15 15 16 15 15 14 14 14 14 14 14 10 9 9 9 8 9 10 10 10 10 9 8 8 8 8 9 8 8 9 10 10
8 9 9 9 9 9 9 8 8 7 7 6 8 9 8 7 7 7 8 7 6 6 7 7 8 8 8 9 10 11 11 12 12 13 14 14 14 14 15 15 15 15 15 14 14 14 14 13 10 9 9 9 8 9 10 10 10 10 10 10 9 8 8 9 8 8 9 12 13
7 8 8 9 9 9 9 8 7 7 7 7 8 9 9 8 8 8 8 7 6 6 6 6 8 8 9 9 10 10 11 12 12 13 13 13 14 14 15 15 15 15 15 14 14 14 14 12 11 10 9 9 8 9 10 11 11 11 11 12 9 8 7 7 7 8 10 12 13
6 6 7 7 7 7 8 8 7 7 8 8 9 9 9 9 9 9 8 7 7 7 6 7 8 9 9 10 10 11 11 11 12 13 13 13 14 14 14 14 15 15 15 14 14 15 15 12 11 11 10 9 8 9 10 12 13 13 13 12 10 9 8 8 9 9 10 11 12
6 6 6 6 6 7 7 7 7 7 8 9 9 9 9 9 9 9 8 7 7 7 7 8 8 9 10 11 11 11 10 10 11 12 13 13 14 15 15 14 14 15 15 14 14 15 15 13 12 12 11 10 10 10 10 12 13 14 13 11 10 11 11 10 10 11 11 11 12
7 6 6 6 6 6 6 6 6 7 8 8 9 9 9 10 9 8 7 6 7 8 9 9 9 10 10 10 11 11 10 10 10 11 12 13 14 15 15 14 14 15 15 15 14 13 13 13 13 14 13 11 11 10 11 13 14 15 14 12 12 12 13 12 12 11 11 11 12
6 6 6 5 6 5 5 6 6 6 7 8 9 9 9 9 9 8 7 7 9 10 10 9 10 11 11 10 10 10 10 10 11 11 12 13 14 15 15 14 15 15 15 15 14 13 12 13 14 15 15 14 11 10 11 13 15 15 16 14 14 14 13 13 13 11 10 10 11
5 5 5 5 5 5 5 6 6 6 7 8 8 8 8 8 8 8 8 9 10 10 9 9 10 11 11 11 10 10 10 11 11 12 12 13 13 14 14 14 14 15 15 15 14 13 13 14 15 15 15 15 12 12 12 14 15 16 16 16 15 14 14 14 13 12 11 11 12
5 5 5 5 5 5 5 6 6 6 7 8 8 8 8 8 8 8 8 9 10 10 9 9 10 11 11 11 11 11 11 11 12 12 13 13 13 14 14 14 14 14 14 13 14 14 14 14 15 16 16 16 15 14 13 14 15 16 17 17 16 15 14 13 13 13 13 13 13
5 5 5 4 4 4 5 6 6 6 7 8 8 8 8 8 8 8 9 10 10 10 9 9 10 10 11 12 12 12 12 12 13 13 13 14 14 14 14 14 14 14 14 13 14 14 15 15 15 16 16 16 16 15 14 14 15 16 16 17 16 16 15 14 14 14 14 15 15
5 5 4 4 4 5 5 6 5 6 7 8 8 8 8 8 8 8 9 10 10 9 9 10 10 10 10 11 12 12 12 12 13 14 14 14 14 14 14 14 14 14 14 14 14 15 15 15 15 15 16 16 16 15 15 15 15 15 16 16 16 16 15 15 15 15 16 16 16
5 5 5 4 5 6 6 7 6 6 7 8 8 8 8 8 8 8 9 10 10 9 10 11 11 10 10 11 11 11 11 12 13 14 14 14 14 14 14 14 14 15 15 15 15 15 15 15 14 15 15 16 16 15 15 15 15 15 16 16 17 17 17 17 17 17 17 18 18
7 6 6 5 6 7 8 8 8 8 9 9 9 9 8 8 8 9 10 10 10 11 11 12 11 10 10 11 11 11 11 12 13 14 14 14 14 14 15 15 15 15 15 16 16 17 16 16 15 15 15 15 15 15 15 15 15 16 16 17 17 17 18 18 18 18 18 19 19
8 7 7 7 7 8 8 9 9 9 10 10 9 9 9 10 10 10 10 10 11 11 12 12 11 11 11 12 11 11 11 11 13 14 14 14 14 14 15 15 15 15 15 16 16 17 17 17 16 16 15 15 15 15 15 15 15 16 16 17 18 18 18 18 18 18 18 19 19
8 8 8 8 8 8 9 9 9 9 9 9 10 10 11 11 11 11 11 11 11 12 12 12 12 11 11 12 12 12 12 11 12 13 13 13 13 14 14 14 14 15 15 15 16 16 17 17 17 16 16 16 16 16 15 15 15 15 16 16 17 18 18 18 18 18 18 18 18
8 8 8 8 8 8 9 9 9 9 9 10 11 11 11 11 11 12 12 12 12 12 12 12 12 12 12 12 12 12 12 11 11 12 13 13 13 14 14 14 14 14 14 15 15 16 16 17 17 17 16 16 16 16 16 15 15 15 16 15 15 16 17 17 17 18 18 18 18
8 8 8 8 8 9 9 9 9 9 10 10 11 11 11 11 11 12 12 12 12 12 12 13 13 13 12 12 12 12 11 11 11 12 12 12 13 13 13 13 13 14 14 15 15 15 16 16 16 16 16 16 16 16 16 16 16 16 16 16 16 16 17 17 17 18 18 18 18
8 8 8 8 8 9 10 10 10 10 11 11 11 11 11 11 12 12 11 11 11 12 12 12 12 12 12 12 12 12 12 12 12 12 12 12 12 12 12 12 13 14 15 14 14 14 15 15 15 16 16 15 16 16 17 17 16 16 16 17 17 17 17 17 18 18 18 18 18
9 8 8 8 8 9 10 10 10 11 11 12 12 12 12 12 11 11 11 11 12 12 12 11 10 11 11 11 11 12 12 13 13 13 13 12 12 12 12 12 13 14 14 13 14 15 15 13 13 14 14 15 15 15 16 16 16 16 16 17 17 17 17 17 18 18 18 18 18
9 9 9 9 9 10 10 10 11 11 12 12 12 12 12 12 11 11 10 11 11 12 12 11 10 10 10 10 11 11 12 13 13 13 13 14 13 13 12 12 12 12 12 12 17 21 21 18 15 13 13 13 14 14 15 15 16 16 16 16 16 16 17 17 18 19 19 19 18
9 9 10 10 10 11 11 11 11 12 12 12 12 12 12 12 11 11 10 11 11 11 11 11 11 10 10 10 11 11 12 12 13 14 14 14 14 14 13 12 11 11 11 14 21 25 26 25 22 18 15 12 13 13 14 14 15 16 16 16 16 16 17 17 18 19 19 18 18
9 10 10 11 11 11 12 12 12 12 12 12 12 12 12 12 11 11 11 12 12 11 10 10 10 11 11 10 11 12 13 12 13 13 14 14 14 14 14 13 12 10 11 16 22 26 28 29 28 25 20 14 13 13 13 13 14 15 16 16 16 17 18 18 19 19 19 18 18
10 10 11 11 11 12 12 12 12 12 12 12 12 12 12 12 12 12 12 11 10 9 8 9 9 9 9 10 11 13 13 13 13 13 13 13 14 15 15 14 12 11 13 18 23 26 28 29 30 29 26 19 14 13 13 13 14 14 14 15 16 17 18 18 18 18 18 18 18
12 11 11 11 12 13 13 12 12 12 12 12 12 12 12 12 12 12 12 11 10 9 9 8 7 7 8 10 11 12 13 13 13 12 12 13 14 15 15 15 13 14 17 21 24 26 28 29 30 30 29 26 16 12 11 12 12 13 14 14 15 16 17 17 16 16 17 17 18
12 11 11 12 13 13 13 13 13 13 12 12 11 11 11 11 11 11 11 11 11 11 9 7 7 8 10 12 11 11 12 12 12 12 13 14 15 15 15 15 14 15 17 23 25 26 27 28 29 30 30 30 21 15 11 12 12 13 14 14 15 17 18 18 18 18 17 16 17
12 12 12 12 13 13 14 14 13 13 12 11 11 11 11 11 11 11 10 10 10 10 9 8 9 11 12 12 11 11 12 12 12 12 13 14 15 15 15 15 15 15 17 22 25 26 27 28 28 29 30 31 24 17 12 13 13 14 14 14 16 17 18 17 18 19 19 18 18
13 12 12 13 13 14 14 14 13 13 13 12 12 12 12 12 11 10 9 8 8 8 9 9 11 12 13 12 12 12 12 12 12 12 13 13 14 15 15 15 15 15 17 22 25 26 27 27 28 29 30 31 25 19 14 14 14 14 15 16 17 18 18 16 17 18 19 19 19
13 13 12 13 14 14 14 14 13 13 13 12 12 12 12 12 10 9 8 7 7 8 9 10 12 12 13 13 12 12 13 13 13 13 14 14 14 14 14 14 13 15 18 22 25 26 26 27 27 28 29 30 25 19 16 15 14 14 15 16 17 17 18 18 17 18 19 19 19
13 12 13 13 14 14 14 14 13 13 12 12 12 12 11 10 10 10 9 8 7 8 9 9 10 11 11 11 11 12 13 13 13 13 13 13 13 14 14 13 11 13 18 22 24 26 26 27 27 28 28 29 23 19 16 16 14 14 15 16 16 17 17 18 18 18 18 19 18
13 12 13 13 13 13 13 13 13 12 12 12 12 12 11 10 10 10 9 9 8 8 8 8 9 9 10 10 10 11 13 13 13 13 13 13 13 13 14 14 12 14 19 22 24 25 26 27 27 28 28 26 20 17 16 16 15 15 16 17 17 17 17 17 17 17 18 18 18
12 12 13 13 13 13 13 13 13 13 13 13 13 13 12 10 10 9 8 8 8 8 8 8 8 8 9 10 10 11 13 13 13 13 12 12 13 13 14 14 13 16 19 23 24 25 26 26 27 28 27 22 17 15 15 15 14 15 16 18 18 18 18 17 17 17 17 17 18
12 12 13 14 14 14 14 14 14 14 14 14 13 12 12 11 10 9 8 7 7 7 7 7 8 9 10 11 11 12 12 12 12 12 12 13 13 13 14 14 13 15 19 22 24 25 25 26 27 27 25 19 15 14 13 13 12 13 15 17 17 18 18 16 16 17 17 17 18
12 12 13 14 15 15 15 14 14 14 14 14 13 11 10 10 8 8 7 6 7 7 8 8 9 10 10 10 12 12 12 12 12 12 12 13 13 13 13 14 13 14 16 21 23 25 25 26 26 26 24 18 15 13 12 11 11 11 12 14 15 16 17 15 15 15 16 19 21
12 13 13 14 15 15 15 15 15 14 14 14 13 12 11 9 8 7 7 6 7 7 8 8 9 10 11 11 11 11 11 11 12 12 13 13 13 13 14 14 13 13 15 19 23 24 25 25 26 26 25 19 15 13 11 10 11 12 12 12 12 14 15 14 14 14 15 19 24
13 13 14 14 14 15 15 15 15 14 13 13 13 12 11 9 9 8 7 7 7 7 7 8 9 10 11 11 11 11 11 11 11 12 12 13 13 15 16 15 13 13 15 18 22 24 25 25 26 26 25 19 15 12 10 10 11 12 12 11 11 11 12 13 13 13 14 17 22
13 13 14 14 14 14 14 15 14 14 13 12 12 11 10 9 9 8 7 7 7 7 7 8 9 10 11 10 10 10 10 11 11 11 12 13 13 15 16 15 13 12 13 16 20 23 25 25 26 26 25 18 14 12 10 10 11 13 13 12 11 10 10 12 12 13 14 15 17
Wind_Direction
222 220 218 219 221 224 226 229 228 227 226 225 226 225 224 223 226 225 222 216 216 215 213 208 204 201 199 197 200 204 207 209 210 212 213 214 215 214 214 213 212 211 210 210 207 206 204 204 206 208 212 213 213 212 211 208 205 204 203 203 204 203 202 202 204 203 202 201 200
226 224 221 222 223 224 226 228 229 227 226 223 223 224 224 223 226 226 224 219 218 215 212 209 202 198 196 197 199 202 205 208 209 211 213 215 215 214 213 213 212 211 210 209 207 206 205 205 205 208 210 212 213 214 213 210 206 206 206 205 204 203 202 204 205 203 202 201 200
229 228 225 223 223 224 225 227 228 227 226 226 224 223 224 225 226 227 225 221 218 214 211 210 202 197 195 196 198 201 204 207 208 210 213 215 215 214 213 213 213 212 210 209 207 207 206 205 206 208 209 209 211 212 213 211 209 209 209 207 204 202 202 205 204 203 202 203 201
230 229 229 227 226 225 225 227 228 228 227 227 226 226 226 227 227 228 227 222 218 214 211 208 204 198 195 195 198 201 204 207 208 210 213 215 215 214 214 213 213 212 211 209 208 208 207 205 207 209 211 210 210 212 212 209 208 210 211 208 205 203 203 204 202 201 202 204 202
231 230 230 230 229 228 228 229 229 229 228 227 227 228 229 229 229 229 228 224 220 216 211 205 204 201 198 196 198 201 204 207 208 210 213 214 215 214 214 214 213 213 211 209 208 208 207 205 208 211 213 211 210 210 210 207 207 210 212 210 207 205 203 203 201 201 202 203 202
234 234 234 234 233 233 234 233 231 230 229 225 226 229 230 229 227 226 225 226 223 218 212 207 208 207 203 198 199 201 204 207 209 210 212 214 214 214 214 214 214 213 212 210 209 208 207 206 210 212 212 211 211 211 210 205 207 209 210 211 209 207 204 203 202 201 201 202 201
236 236 237 237 236 236 236 235 234 232 229 227 227 228 228 227 225 224 225 226 225 220 216 214 213 211 208 203 203 203 205 206 209 210 211 213 213 213 213 214 214 213 212 210 208 208 208 207 210 213 213 212 211 209 207 204 206 207 209 211 210 207 205 205 202 201 201 201 200
242 240 240 240 238 237 236 235 233 232 231 230 229 229 227 225 223 223 225 226 225 223 221 220 217 214 212 208 208 207 206 206 209 210 210 212 212 213 213 213 213 213 212 209 208 207 208 208 211 213 213 210 210 207 204 202 204 206 208 210 210 208 206 205 203 202 202 201 199
250 248 246 244 242 240 237 234 231 229 230 232 231 229 226 223 221 222 223 224 225 223 222 222 219 217 215 214 213 210 208 207 208 209 210 211 211 212 212 212 213 213 212 209 208 207 207 208 213 214 213 210 209 205 200 198 201 204 207 208 209 208 207 204 203 203 203 201 199
252 251 250 249 247 244 241 239 234 231 231 234 233 230 227 224 222 220 220 222 222 222 221 221 218 217 217 218 216 214 211 208 208 208 209 210 210 211 211 211 211 212 211 209 207 207 207 209 213 215 214 211 208 203 198 195 199 202 205 206 206 206 205 204 203 203 203 201 199
254 253 250 248 247 245 244 243 240 237 235 236 235 233 229 227 224 221 219 217 219 220 219 216 214 215 218 219 218 216 213 210 209 208 208 210 210 210 210 210 210 210 210 208 207 206 207 210 213 215 214 212 208 203 198 195 198 201 203 205 203 203 204 203 201 201 201 200 199
262 259 255 250 246 244 242 241 242 240 239 239 238 236 233 230 227 224 221 218 219 220 219 213 212 213 216 217 217 216 214 212 210 209 209 211 211 210 210 210 209 209 209 208 206 205 207 210 212 213 213 212 209 204 200 197 199 201 203 204 202 202 203 202 199 198 198 197 197
270 268 263 256 248 243 240 240 240 240 241 241 240 239 237 236 231 228 225 224 224 224 222 216 213 214 215 216 214 213 212 211 210 210 211 212 211 210 210 210 209 209 209 208 206 206 207 210 211 211 212 211 210 206 203 199 200 201 203 203 203 203 202 200 197 196 195 195 196
274 271 266 260 251 244 240 240 240 241 241 242 242 241 240 240 236 232 230 230 230 229 227 222 219 218 218 216 213 211 210 210 209 210 212 212 211 211 210 210 209 208 208 209 208 207 208 209 209 210 210 211 210 208 204 201 201 202 203 202 203 203 201 199 196 194 193 195 197
280 273 267 261 254 248 243 241 241 242 242 243 243 242 241 241 238 235 233 234 234 232 230 227 227 225 222 218 214 211 210 209 209 210 212 213 212 211 210 210 208 208 208 208 209 209 209 209 209 209 210 211 210 208 205 203 203 203 203 203 203 202 200 198 195 193 194 195 197
289 281 274 267 260 253 248 244 244 244 244 245 243 241 240 240 238 235 234 234 234 233 231 229 229 227 225 221 217 214 212 211 210 211 211 212 211 210 210 210 208 207 207 207 209 210 211 210 209 209 209 210 210 208 206 204 204 204 204 203 202 201 199 197 195 194 195 196 199
300 293 285 276 267 260 255 250 249 248 247 246 244 242 239 239 238 236 234 233 233 232 231 229 228 226 224 223 219 216 214 214 213 212 211 211 209 209 208 209 208 207 206 207 209 210 211 211 209 209 209 210 209 208 206 205 204 204 204 203 202 201 200 198 196 196 197 198 201
308 303 296 288 275 267 261 256 254 252 251 249 247 244 240 238 237 237 235 233 232 231 231 231 228 225 223 222 220 217 215 216 215 214 212 210 208 207 207 208 207 206 205 207 208 210 210 210 209 209 209 209 209 208 206 205 204 203 203 203 202 202 201 199 197 197 197 200 202
310 307 302 295 285 276 268 263 259 256 254 252 250 248 245 240 237 237 236 235 232 230 230 231 229 226 223 221 220 219 217 217 217 216 214 211 209 208 207 208 207 206 206 207 209 210 210 209 208 208 209 209 209 208 207 205 204 204 203 203 203 203 202 201 200 199 199 201 203
309 306 303 297 290 283 276 269 264 260 257 255 254 251 248 243 239 237 237 236 232 230 230 231 230 228 225 223 221 220 220 218 217 217 217 214 211 210 209 207 207 207 206 207 209 209 210 209 209 208 208 208 208 208 207 205 205 205 204 205 205 205 205 203 202 202 202 203 204
303 301 299 296 293 287 282 275 269 265 261 259 255 252 250 246 242 239 237 236 234 232 231 231 230 229 227 224 223 222 222 220 218 218 218 216 214 213 210 208 207 208 208 208 209 209 209 209 208 208 208 208 207 207 206 205 205 205 205 206 207 207 207 206 205 205 205 206 207
299 298 296 295 293 289 285 281 276 271 267 262 258 254 251 248 244 241 239 237 235 234 233 232 231 229 227 225 223 223 223 223 221 220 218 217 217 215 212 209 209 209 210 210 209 209 209 209 208 207 207 207 207 207 206 205 206 206 206 207 208 208 208 207 207 208 208 209 209
296 296 295 294 293 290 288 285 281 276 272 267 262 258 253 250 246 243 240 238 236 234 234 234 233 231 228 226 224 223 224 225 224 223 221 218 218 216 214 211 211 211 212 211 210 208 208 209 209 208 207 207 208 207 207 206 206 207 207 208 208 208 208 209 209 210 211 211 211
294 295 295 295 293 291 289 287 284 279 274 269 265 261 257 253 249 245 241 238 236 234 234 235 234 233 231 229 227 225 224 225 225 225 223 220 219 217 215 213 213 214 214 212 209 207 205 206 207 207 207 207 208 208 208 208 208 207 208 208 208 208 209 210 210 211 212 213 213
294 294 294 294 292 291 289 286 283 278 274 270 266 262 259 255 251 246 242 239 236 235 234 234 235 234 233 233 230 228 226 225 226 226 225 224 221 219 216 215 216 215 215 215 213 211 210 207 206 205 207 208 209 210 210 210 209 209 208 207 208 209 210 211 212 212 213 213 213
295 294 294 291 290 288 286 283 279 276 274 271 268 264 260 255 251 247 243 240 238 235 233 232 233 234 233 234 234 232 230 229 228 227 227 226 224 221 219 218 218 218 217 216 216 215 215 213 211 209 207 207 209 210 211 212 211 210 210 209 209 209 210 212 212 213 213 213 212
296 294 291 289 287 285 282 279 277 276 273 271 268 264 260 256 252 248 244 242 239 236 233 231 232 233 234 235 234 234 233 232 230 229 228 227 226 224 223 223 222 221 219 218 219 219 219 218 217 214 210 207 207 208 209 211 211 211 211 211 212 212 212 213 213 213 213 213 212
293 291 288 287 285 282 280 279 278 276 274 271 268 264 261 257 253 249 245 243 240 237 234 233 231 232 233 235 234 233 232 232 232 231 229 228 228 227 226 226 225 224 222 220 221 221 222 222 221 219 215 210 208 208 209 211 211 211 212 214 215 215 215 215 214 214 213 213 213
288 286 285 284 281 280 280 280 278 276 274 272 270 267 264 259 254 250 246 244 240 237 235 233 231 230 231 234 234 233 232 232 231 231 231 231 230 230 229 229 229 228 226 224 224 224 225 225 225 223 220 214 209 206 208 210 211 213 214 216 217 218 218 218 217 215 214 214 213
285 283 282 280 279 280 280 280 278 278 277 276 273 270 267 263 258 252 248 244 240 237 234 231 229 229 230 231 232 233 232 232 230 230 230 231 231 231 231 231 230 230 229 228 228 227 227 227 227 227 225 219 213 207 205 209 212 214 216 218 219 219 219 219 219 217 216 215 214
284 282 280 279 280 280 280 279 279 279 278 277 275 272 269 266 261 255 250 244 241 239 236 232 231 231 231 231 231 232 232 232 230 229 228 230 231 232 232 232 231 231 231 230 230 230 230 229 229 229 228 225 218 211 204 206 210 214 217 219 219 219 219 219 219 218 217 215 214
282 280 279 279 279 279 280 280 280 279 278 277 275 273 270 266 262 258 253 248 244 241 238 234 233 234 234 233 232 231 232 232 230 229 227 228 230 231 232 232 231 231 231 231 232 232 232 231 230 230 229 228 223 216 207 203 208 212 216 219 219 218 217 217 218 218 217 216 214
280 279 279 278 279 280 280 280 279 279 277 276 274 272 270 268 266 262 258 253 247 241 238 236 235 235 236 235 233 232 232 231 231 230 229 229 229 230 231 232 231 231 231 231 232 233 233 233 232 231 230 229 227 222 212 204 206 210 215 218 218 218 217 217 217 217 216 216 215
279 279 279 278 278 279 279 279 278 278 278 277 276 274 271 270 268 266 262 256 249 243 239 236 235 235 236 234 234 233 233 232 231 230 229 229 228 228 229 230 230 230 230 231 233 233 234 234 233 232 231 229 229 226 219 211 209 210 213 216 217 217 217 216 217 217 216 216 215
278 278 278 278 278 279 280 281 281 281 281 280 280 278 275 272 269 266 263 258 253 248 243 239 237 237 238 237 235 234 234 234 233 231 229 228 227 228 229 229 229 229 229 231 233 233 234 234 234 233 232 230 230 228 224 218 214 212 212 214 216 216 216 216 216 216 216 216 216
275 276 278 280 283 284 285 286 286 286 285 284 283 282 280 277 272 267 263 260 256 251 246 243 241 240 240 240 238 235 234 234 233 232 229 226 226 227 229 230 229 228 229 231 233 234 234 234 234 234 232 230 229 228 226 224 219 214 212 212 214 215 214 214 214 215 215 215 215
271 275 281 286 289 291 291 291 291 289 288 286 284 282 281 279 276 272 267 262 257 252 248 244 242 241 240 239 239 237 234 232 232 231 230 227 226 227 229 230 229 228 228 231 233 234 235 235 234 233 232 230 228 227 226 227 223 217 213 212 214 214 213 212 213 214 214 215 215
274 282 289 293 295 295 294 294 292 290 288 286 285 283 281 280 278 274 269 262 255 252 250 247 244 242 241 239 239 238 236 232 230 230 230 229 227 227 229 231 230 228 228 229 232 234 235 235 235 233 231 230 227 225 225 226 225 221 216 213 213 213 212 212 212 213 214 214 215
287 293 295 296 295 295 294 294 292 290 288 287 286 285 283 281 278 274 268 261 254 250 249 248 246 244 242 241 241 240 237 233 230 229 229 230 228 228 230 232 232 229 227 228 231 233 234 235 235 233 231 230 227 225 224 224 226 224 221 216 214 212 211 211 211 213 214 215 216
294 296 296 295 294 294 294 293 291 290 289 288 288 286 285 282 280 276 271 265 257 252 250 250 248 246 244 242 241 240 239 235 230 229 229 230 231 232 233 235 234 231 229 229 231 233 234 234 235 233 232 230 227 224 223 224 226 227 225 221 215 211 209 209 210 212 213 214 216
295 295 295 294 293 292 292 292 291 291 290 290 289 288 287 285 283 279 276 271 264 259 255 254 251 248 245 242 241 240 239 238 233 229 228 229 232 234 235 237 236 233 230 229 231 232 234 234 234 233 232 231 227 224 223 223 225 227 227 225 217 211 208 207 209 211 213 212 214